Home > Weather > Knoxville > Past weeks

Flag for USA Weather for the Past 2 Weeks in Knoxville, Tennessee, USA

Now
79 °F

Passing clouds.


Feels Like: 79 °F
Forecast: 59 / 83 °F
Wind: 3 mph from East

Location: McGhee Tyson Airport

Current Time: Apr 29, 2016 at 2:03:49 PM

Latest Report: Apr 29, 2016 at 12:53 PM


Visibility: 10 mi

Pressure: 29.98 "Hg

Humidity: 32%

Dew Point: 47 °F

Location of KnoxvilleLocation

Historic Weather in Knoxville — Graph

°F

Knoxville Temperature Yesterday

Maximum temperature yesterday: 83 °F (at 4:53 PM)
Minimum temperature yesterday: 64 °F (at 3:59 AM)
Average temperature yesterday: 72 °F

High & Low Weather Summary for the Past Weeks

 TemperatureHumidityPressure
High85 °F (Apr 20, 5:53 PM)100% (Apr 23, 1:53 AM)30.41 "Hg (Apr 23, 1:53 AM)
Low45 °F (Apr 16, 7:53 AM)16% (Apr 18, 4:53 PM)29.74 "Hg (Apr 27, 7:53 PM)
Average68 °F55%30.04 "Hg
* Reported Apr 14 12:53 PM — Apr 29 12:53 PM, Knoxville, Weather by CustomWeather, © 2016

Note: Actual official high and low records may vary slightly from our data, if they occured in-between our weather recording intervals... More about our weather records

Advertising

Knoxville Weather History for the Previous 24 Hours

Scroll right to see more
 ConditionsComfort  
Time TempWeatherWind HumidityBarometerVisibility
12:53 PM
Fri, Apr 29
79 °FPassing clouds.3 mph32%29.98 "Hg10 mi
11:53 AM77 °FPassing clouds.No wind33%30.01 "Hg10 mi
10:53 AM75 °FScattered clouds.7 mph40%30.02 "Hg10 mi
9:53 AM70 °FScattered clouds.No wind59%30.01 "Hg10 mi
8:53 AM64 °FPartly sunny.No wind75%30.02 "Hg10 mi
7:53 AM63 °FPartly sunny.No wind75%30.02 "Hg10 mi
5:53 AM60 °FClear.No wind80%29.99 "Hg10 mi
4:53 AM60 °FClear.No wind83%29.98 "Hg10 mi
1:53 AM66 °FClear.6 mph68%29.94 "Hg10 mi
12:53 AM65 °FClear.7 mph73%29.94 "Hg10 mi
11:53 PM
Thu, Apr 28
68 °FClear.7 mph68%29.93 "Hg10 mi
10:53 PM70 °FClear.5 mph66%29.92 "Hg10 mi
9:53 PM71 °FClear.No wind63%29.91 "Hg10 mi
8:53 PM75 °FPassing clouds.8 mph55%29.88 "Hg10 mi
7:53 PM78 °FPassing clouds.6 mph50%29.87 "Hg10 mi
6:53 PM80 °FPassing clouds.8 mph45%29.86 "Hg10 mi
5:53 PM80 °FScattered clouds.13 mph42%29.86 "Hg10 mi
4:53 PM83 °FPassing clouds.16 mph37%29.85 "Hg10 mi
3:53 PM82 °FScattered clouds.15 mph43%29.87 "Hg10 mi
2:53 PM81 °FPassing clouds.15 mph42%29.87 "Hg10 mi
Weather by CustomWeather, © 2016

See weather overviewHow to use our weather pages